Weather History for Lander, WY

Change the Weather History Date:

Wednesday, March 27, 2013

  Actual Average Record
Temperature  
Mean Temperature 41 °F 39 °F  
Max Temperature 56 °F 51 °F 73 °F (1946)
Min Temperature 26 °F 27 °F -7 °F (1931)
Degree Days  
Heating Degree Days 24 26  
Month to date heating degree days 818 813  
Since 1 July heating degree days 6187 6517  
Cooling Degree Days 0 0  
Month to date cooling degree days 0 0  
Year to date cooling degree days 0 0  
Moisture  
Dew Point 21 °F    
Average Humidity 50    
Maximum Humidity 75    
Minimum Humidity 24    
Precipitation  
Precipitation 0.00 in 0.05 in 0.74 in (1905)
Month to date precipitation 0.42 0.97  
Year to date precipitation 2.40 1.96  
Snow  
Snow 0.00 in 0.60 in - ()
Month to date snowfall 5.1 13.7  
Since 1 July snowfall 57.3 67.3  
Snow Depth 0.00 in    
Sea Level Pressure  
Sea Level Pressure 29.98 in    
Wind  
Wind Speed 6 mph (WSW)    
Max Wind Speed 16 mph    
Max Gust Speed 20 mph    
Visibility 10 miles    
Events      
T = Trace of Precipitation, MM = Missing Value Source: NWS Daily Summary

Daily Weather History Graph

Daily Weather History Graph

Search for Another Location

Airport:

Trip Planner

Search our weather history database for the weather conditions in past years. The results will help you decide how hot, cold, wet, or windy it might be!

Date:

Astronomy

Mar. 27, 2013 Rise Set
Actual Time 7:05 AM MDT 7:35 PM MDT
Civil Twilight 6:36 AM MDT 8:04 PM MDT
Nautical Twilight 6:03 AM MDT 8:37 PM MDT
Astronomical Twilight 5:28 AM MDT 9:12 PM MDT
Moon 8:25 PM MDT (3/27) 6:56 AM MDT (3/27)
Length of Visible Light 13h 27m
Length of Day
12h 30m
Full, 100% of the Moon is Illuminated
Mar 27
Full
Apr 2
Last Quarter
Apr 10
New
Apr 18
First Quarter
Apr 25
Full

Hourly Weather History & Observations

Time (MDT) Temp. Windchill Dew Point Humidity Pressure Visibility Wind Dir Wind Speed Gust Speed Precip Events Conditions
12:53 AM 34.0 °F 27.2 °F 19.0 °F 54% 29.95 in 10.0 mi WSW 8.1 mph - N/A   Clear
1:53 AM 33.1 °F 27.7 °F 19.0 °F 56% 29.96 in 10.0 mi SW 5.8 mph - N/A   Partly Cloudy
2:53 AM 32.0 °F 28.7 °F 19.0 °F 59% 29.96 in 10.0 mi WNW 3.5 mph - N/A   Clear
3:53 AM 32.0 °F 25.6 °F 18.0 °F 56% 29.96 in 10.0 mi WSW 6.9 mph - N/A   Clear
4:53 AM 30.0 °F 26.5 °F 18.0 °F 61% 29.97 in 10.0 mi SSW 3.5 mph - N/A   Clear
5:53 AM 28.0 °F 22.8 °F 19.0 °F 69% 30.00 in 10.0 mi WSW 4.6 mph - N/A   Clear
6:53 AM 28.9 °F 21.9 °F 17.1 °F 61% 30.01 in 10.0 mi SW 6.9 mph - N/A   Clear
7:53 AM 28.9 °F - 21.0 °F 72% 30.04 in 10.0 mi Calm Calm - N/A   Clear
8:53 AM 34.0 °F 31.0 °F 25.0 °F 70% 30.04 in 10.0 mi East 3.5 mph - N/A   Clear
9:53 AM 39.9 °F - 23.0 °F 51% 30.02 in 10.0 mi Calm Calm - N/A   Clear
10:53 AM 43.0 °F - 21.0 °F 42% 30.02 in 10.0 mi Calm Calm - N/A   Clear
11:53 AM 45.0 °F - 21.0 °F 39% 30.00 in 10.0 mi Calm Calm - N/A   Clear
12:53 PM 48.0 °F - 21.9 °F 36% 29.98 in 10.0 mi NNE 6.9 mph - N/A   Clear
1:53 PM 50.0 °F - 21.9 °F 33% 29.95 in 10.0 mi SSE 8.1 mph - N/A   Clear
2:53 PM 52.0 °F - 23.0 °F 32% 29.93 in 10.0 mi South 5.8 mph - N/A   Clear
3:53 PM 54.0 °F - 23.0 °F 30% 29.92 in 10.0 mi ENE 3.5 mph - N/A   Clear
4:53 PM 55.0 °F - 21.0 °F 27% 29.91 in 10.0 mi SSW 11.5 mph - N/A   Clear
5:53 PM 55.0 °F - 19.0 °F 24% 29.92 in 10.0 mi West 10.4 mph - N/A   Clear
6:53 PM 50.0 °F - 21.9 °F 33% 29.95 in 10.0 mi West 9.2 mph - N/A   Clear
7:53 PM 44.1 °F 38.6 °F 23.0 °F 43% 29.99 in 10.0 mi WSW 10.4 mph - N/A   Clear
8:53 PM 44.1 °F 38.1 °F 23.0 °F 43% 30.00 in 10.0 mi WSW 11.5 mph - N/A   Scattered Clouds
9:53 PM 42.1 °F 36.1 °F 21.9 °F 45% 30.01 in 10.0 mi NW 10.4 mph - N/A   Clear
10:53 PM 42.1 °F 36.6 °F 19.9 °F 41% 30.00 in 10.0 mi WSW 9.2 mph - N/A   Partly Cloudy
11:53 PM 37.9 °F - 19.9 °F 48% 30.01 in 10.0 mi Calm Calm - N/A   Clear